Location: *
(31.2983°S, 151.4094°E)
Time: 10:46:15
(UTC+00:00)

Unknown - Pass Details

Date: 25 August 2019
Orbit: 438 x 449 km, 53.0° (Epoch: 20 October)

Event Time Altitude Azimuth Distance (km) Brightness Sun altitude
Exits shadow 19:27:26 - 214° (SW) 1,792 5.9 -11.7°
Reaches altitude 10° 19:27:57 10° 212° (SSW) 1,587 5.6 -11.5°
Maximum altitude 19:31:26 49° 136° (SE) 590 4.1 -10.8°
Drops below altitude 10° 19:34:53 10° 59° (ENE) 1,575 7.1 -10.1°
Sets 19:37:03 0° 53° (NE) 2,442 8.1 -9.6°
